This is the latest recevied weather packets stored in our database for station/object G4KVI. If no packets are shown the sender has not sent any weather packets the latest 10 day(s).
| Time | Temp. | Humidity | Pressure | Rain* | Wind** | Luminosity | Snow |
|---|---|---|---|---|---|---|---|
| 1777188604 | 11.11° C | 55% | 1026.7 hPa | 0 mm | - | 216 W/m² | - |
| 1777188304 | 11.11° C | 56% | 1026.4 hPa | 0 mm | - | 185 W/m² | - |
| 1777188004 | 11.11° C | 58% | 1026.3 hPa | 0 mm | - | 210 W/m² | - |
| 1777187704 | 11.11° C | 57% | 1026.5 hPa | 0 mm | - | 196 W/m² | - |
| 1777187404 | 11.11° C | 61% | 1026.3 hPa | 0 mm | - | 187 W/m² | - |
| 1777187104 | 11.11° C | 60% | 1026.5 hPa | 0 mm | - | 191 W/m² | - |
| 1777186804 | 10.56° C | 62% | 1026.6 hPa | 0 mm | - | 177 W/m² | - |
| 1777186504 | 10° C | 63% | 1026.4 hPa | 0 mm | - | 165 W/m² | - |
| 1777186204 | 10° C | 64% | 1026.5 hPa | 0 mm | - | 155 W/m² | - |
| 1777185904 | 9.44° C | 66% | 1026.6 hPa | 0 mm | - | 152 W/m² | - |
| 1777185604 | 8.89° C | 67% | 1026.3 hPa | 0 mm | - | 118 W/m² | - |
| 1777185304 | 9.44° C | 67% | 1026.4 hPa | 0 mm | - | 107 W/m² | - |
| 1777185004 | 9.44° C | 67% | 1026.3 hPa | 0 mm | - | 101 W/m² | - |
| 1777184704 | 9.44° C | 68% | 1026.3 hPa | 0 mm | - | 104 W/m² | - |
| 1777184404 | 9.44° C | 68% | 1026.3 hPa | 0 mm | - | 106 W/m² | - |
| 1777184104 | 8.89° C | 69% | 1026.2 hPa | 0 mm | - | 107 W/m² | - |
| 1777183804 | 8.33° C | 71% | 1026.3 hPa | 0 mm | - | 97 W/m² | - |
| 1777183504 | 7.78° C | 74% | 1026.2 hPa | 0 mm | - | 96 W/m² | - |
| 1777183204 | 7.78° C | 75% | 1026.2 hPa | 0 mm | - | 83 W/m² | - |
| 1777182904 | 6.67° C | 78% | 1026 hPa | 0 mm | - | 70 W/m² | - |
| 1777182604 | 6.11° C | 80% | 1025.9 hPa | 0 mm | - | 58 W/m² | - |
| 1777182304 | 6.11° C | 80% | 1025.9 hPa | 0 mm | - | 53 W/m² | - |
| 1777182004 | 5.56° C | 80% | 1026 hPa | 0 mm | - | 47 W/m² | - |
| 1777181704 | 5° C | 81% | 1025.6 hPa | 0 mm | - | 39 W/m² | - |
| 1777181404 | 5° C | 83% | 1025.7 hPa | 0 mm | - | 32 W/m² | - |
* Rain latest hour (hover to see other rain measurements)
** Current wind speed in m/s (hover to see current wind gust speed)